Starlink 32148

operational
NORAD ID: 60263 Int'l Des: 2024-131 Owner: SPXS Country: US Constellation: starlink
LEOCIRCULAR

About Starlink 32148

Description loading...

Live Position

Loading 3D Globe...

Upcoming Passes

Altitude History

Altitude vs Time

uPlot chart will show altitude changes over time

Two-Line Element Set

1 60263U 24131J 25340.78201568 -.00000608 00000-0 -84110-5 0 9994
2 60263 53.1601 124.0039 0001029 79.2401 280.8716 15.30197546 77545
Epoch: Dec 6, 2025 • Age: 12 hours

Current Status

Altitude 491.7 km
Velocity 7.62 km/s
Sub-Earth Point -46.45°S, 174.91°E
Launch Date Jul 27, 2024
Age 1.3 years
Type internet

Technical Details

Classification Payload
Mass 730.00 kg
Dry Mass 700.00 kg
Total Mass 730.00 kg
Length 0.30 m
Diameter 4.10 m
Span 29.00 m
Shape Box + pan
Manufacturer SPXS
Bus Type Starlink V2M
Phase Status In Orbit
Owner/State SPXS/US

Large Constellations

Loading constellations...